Home   Weather   Bastia   Past weeks
Flag for France

Past Weather in Bastia, Corse, France — Yesterday and Last 2 Weeks

Now
81 °F

Clear.


Feels Like: 83 °F
Forecast: 89 / 67 °F
Wind: 3 mph from Southwest

Location: Bastia Airport

Current Time: Jun 26, 2019 at 10:25:48 pm

Latest Report: Jun 26, 2019 at 9:30 pm


Visibility: 10 mi

Pressure: 30.12 "Hg

Humidity: 66%

Dew Point: 68 °F

Location of BastiaLocation

Past Weather in Bastia — Graph

°F

Bastia Temperature Yesterday

Maximum temperature yesterday: 93 °F (at 5:00 pm)
Minimum temperature yesterday: 68 °F (at 4:30 am)
Average temperature yesterday: 81 °F

High & Low Weather Summary for the Past Weeks

 TemperatureHumidityPressure
High97 °F (Jun 26, 2:30 pm)94% (Jun 11, 10:00 pm)30.18 "Hg (Jun 11, 10:00 pm)
Low61 °F (Jun 14, 3:30 am)28% (Jun 26, 1:00 pm)29.80 "Hg (Jun 11, 9:00 pm)
Average74 °F69%29.98 "Hg
* Reported Jun 11 9:00 pm — Jun 26 9:00 pm, Bastia. Weather by CustomWeather, © 2019

Note: Actual official high and low records may vary slightly from our data, if they occured in-between our weather recording intervals... More about our weather records

Advertising

Bastia Weather History for the Previous 24 Hours

Scroll right to see more
 ConditionsComfort  
Time TempWeatherWind HumidityBarometerVisibility
9:00 pm
Wed, Jun 26
82 °FSunny.6 mph55%30.09 "Hg10 mi
8:30 pm84 °FSunny.7 mph55%30.09 "Hg10 mi
8:00 pm86 °FSunny.7 mph52%30.09 "Hg10 mi
7:30 pm88 °FPassing clouds.7 mph52%30.09 "HgN/A
7:00 pm88 °FSunny.7 mph55%30.09 "Hg10 mi
6:30 pm91 °FPassing clouds.6 mph44%30.09 "HgN/A
6:00 pm93 °FPassing clouds.6 mph36%30.09 "HgN/A
5:30 pm93 °FPassing clouds.3 mph39%30.09 "HgN/A
5:00 pm93 °FPassing clouds.6 mph39%30.12 "HgN/A
4:30 pm91 °FPassing clouds.7 mph38%30.12 "HgN/A
4:00 pm93 °FPassing clouds.8 mph32%30.12 "HgN/A
3:30 pm95 °FPassing clouds.6 mph32%30.12 "HgN/A
3:00 pm93 °FPassing clouds.10 mph34%30.12 "HgN/A
2:30 pm97 °FPassing clouds.7 mph34%30.12 "HgN/A
2:00 pm95 °FPassing clouds.5 mph30%30.15 "HgN/A
1:30 pm93 °FSunny.8 mph30%30.15 "Hg10 mi
1:00 pm95 °FPassing clouds.7 mph28%30.15 "HgN/A
12:30 pm93 °FPassing clouds.6 mph30%30.15 "HgN/A
12:00 pm93 °FPassing clouds.7 mph30%30.15 "HgN/A
11:30 am93 °FPassing clouds.8 mph32%30.15 "HgN/A
11:00 am91 °FPassing clouds.7 mph38%30.15 "HgN/A
10:30 am91 °FPassing clouds.5 mph36%30.15 "HgN/A
10:00 am90 °FPassing clouds.3 mph43%30.15 "HgN/A
9:30 am88 °FSunny.2 mph49%30.18 "Hg10 mi
9:00 am84 °FPassing clouds.5 mph55%30.18 "HgN/A
8:30 am82 °FSunny.5 mph55%30.15 "Hg10 mi
8:00 am79 °FSunny.3 mph65%30.15 "Hg10 mi
7:30 am75 °FSunny.5 mph65%30.15 "Hg10 mi
7:00 am75 °FPassing clouds.3 mph65%30.15 "HgN/A
6:30 am73 °FSunny.6 mph65%30.15 "Hg10 mi
6:00 am72 °FSunny.3 mph69%30.15 "Hg10 mi
5:30 am72 °FClear.5 mph69%30.12 "Hg10 mi
5:00 am72 °FClear.6 mph69%30.12 "Hg10 mi
4:00 am72 °FClear.5 mph69%30.12 "Hg10 mi
3:30 am72 °FClear.6 mph69%30.15 "Hg10 mi
3:00 am72 °FClear.6 mph69%30.15 "Hg10 mi
2:30 am72 °FClear.6 mph69%30.15 "Hg10 mi
2:00 am73 °FClear.6 mph65%30.15 "Hg10 mi
1:30 am73 °FClear.5 mph65%30.15 "Hg10 mi
1:00 am73 °FClear.5 mph69%30.15 "Hg10 mi
12:30 am73 °FClear.5 mph69%30.15 "Hg10 mi
12:00 am73 °FClear.5 mph74%30.15 "Hg10 mi
11:30 pm
Tue, Jun 25
75 °FClear.5 mph69%30.15 "Hg10 mi
10:30 pm79 °FClear.5 mph74%30.12 "Hg10 mi
10:00 pm77 °FPassing clouds.3 mph61%30.12 "HgN/A
Weather by CustomWeather, © 2019

See weather overview